Total_Precipitation_Accumulation
3.63 3.22 3.25 2.82 2.61 2.66 2.07 1.99 1.94 2.04 2.13 2.41 2.55 2.43 2.35 2.45 3.19 4.35 4.80 3.42 6.01 5.78 3.29 1.73 1.20 1.04 0.87 1.29 2.24 2.25 2.37 2.72 3.26 4.17 4.73 3.69 2.28 1.24 0.80 0.68 1.01 1.07 1.50 1.63 1.62 2.37 1.79 0.24 0.34 0.98 1.67 1.00 0.85 0.75
3.88 3.31 3.32 3.00 2.64 2.57 2.07 2.04 2.02 2.01 1.97 2.08 2.47 2.38 2.46 2.60 3.37 4.09 4.76 3.53 4.52 5.96 4.24 1.96 1.41 1.04 0.97 1.10 1.78 2.57 2.68 2.12 2.26 3.01 3.41 2.97 2.58 1.82 1.21 1.11 1.00 1.34 1.10 1.41 1.28 1.23 0.68 0.50 0.57 0.45 0.27 0.23 0.23 0.51
3.88 3.62 3.73 2.97 2.70 2.55 2.19 2.03 1.91 2.01 2.09 2.10 2.49 2.62 2.39 2.77 3.40 4.08 4.23 3.60 6.06 7.97 5.11 2.60 1.65 0.88 0.65 0.85 1.47 2.89 2.86 2.05 2.17 2.73 3.39 3.84 3.57 2.36 1.76 1.28 1.09 1.19 0.89 1.62 1.57 0.91 0.40 0.40 0.39 0.22 0.26 0.35 0.27 0.37
3.84 3.57 3.50 2.99 2.82 2.39 1.98 1.92 1.82 1.95 2.00 2.41 2.95 3.04 2.74 3.18 3.78 4.37 4.39 4.01 4.92 6.09 5.41 2.96 1.31 0.86 0.52 0.48 0.91 1.36 1.62 2.04 2.83 3.75 4.77 4.89 3.72 2.34 1.94 1.38 1.13 0.86 1.23 1.83 1.82 1.18 0.76 0.50 0.49 0.58 0.48 0.46 0.45 0.42
3.57 3.44 3.38 2.95 3.12 2.57 2.13 2.06 2.05 2.02 2.07 2.55 3.29 3.13 3.05 3.29 4.41 5.18 4.67 4.28 3.46 4.19 4.70 2.54 1.40 1.09 0.84 0.57 0.66 0.94 1.52 2.22 3.15 4.51 4.99 3.60 2.05 1.97 1.69 1.48 1.22 0.46 1.09 1.65 2.34 1.69 1.71 1.24 0.86 0.82 0.86 0.52 0.27 0.31
3.34 3.52 3.27 2.78 2.57 2.29 2.37 2.39 2.21 2.01 2.08 2.67 3.07 3.09 2.90 3.58 5.89 8.59 10.76 6.49 3.71 3.13 4.65 3.35 1.95 1.43 1.12 0.98 0.95 1.27 1.47 2.16 3.28 3.88 3.67 2.44 1.29 1.83 2.79 1.53 0.39 0.25 0.39 0.72 1.41 1.67 1.59 1.47 0.95 0.72 0.66 0.72 0.59 0.51
2.99 2.95 2.68 2.26 2.13 2.04 2.37 2.20 2.08 2.23 2.57 2.89 2.82 3.24 3.28 4.28 6.78 7.60 5.54 3.79 2.81 3.51 5.96 3.77 2.14 1.69 1.54 1.46 1.57 1.59 1.91 2.16 2.64 3.31 2.82 1.67 0.99 1.99 3.07 1.57 0.30 0.42 0.54 0.69 0.81 1.06 1.13 1.05 0.79 0.41 0.45 0.54 0.56 0.55
2.61 2.44 2.12 2.00 2.14 2.17 1.97 1.84 2.03 2.53 2.98 2.79 3.03 3.69 4.64 6.38 7.53 5.10 2.12 1.68 2.58 4.29 4.32 3.54 2.30 2.42 1.98 2.12 1.97 1.84 2.14 2.57 3.07 2.86 2.08 1.43 1.66 2.42 2.61 0.45 0.13 0.31 0.49 0.55 0.48 0.57 0.81 0.80 1.06 0.75 0.52 0.66 0.80 0.58
2.28 1.95 1.61 1.66 2.26 2.49 2.08 1.91 2.28 2.72 3.31 3.36 4.16 5.81 8.47 8.75 7.60 4.43 2.88 2.75 3.84 5.31 4.53 2.15 1.53 2.49 2.13 2.77 2.38 2.40 2.46 3.29 2.72 2.15 1.29 1.61 2.08 2.60 1.12 0.49 0.51 0.44 0.74 0.83 0.71 0.63 0.69 0.84 0.98 1.01 0.69 0.63 0.72 0.83
2.00 1.36 1.29 1.43 1.88 2.33 2.34 2.24 2.57 3.39 4.05 4.86 6.04 8.04 9.36 6.07 4.03 4.17 6.27 6.83 6.42 5.17 3.25 1.61 0.80 1.97 2.37 2.59 2.77 2.97 2.68 2.72 2.65 1.35 1.24 1.93 1.42 0.78 0.47 0.65 0.89 0.95 0.97 1.08 1.25 1.17 0.91 0.84 0.70 0.81 0.67 0.49 0.56 0.70
1.55 1.15 1.11 1.35 1.64 1.79 1.82 1.95 2.50 3.26 4.46 5.91 6.21 6.54 6.03 4.32 4.17 5.01 5.31 4.42 3.24 2.29 1.42 1.08 0.87 1.40 1.93 2.75 2.81 2.83 2.88 2.11 1.75 1.30 1.45 1.50 0.89 0.97 0.83 1.04 1.15 1.23 1.26 1.30 1.54 1.72 1.17 0.80 0.60 0.68 0.66 0.58 0.62 0.78
1.33 1.06 1.10 1.13 1.26 1.50 1.53 1.78 2.28 2.39 3.31 3.58 3.78 4.39 5.00 4.49 4.28 3.81 2.97 1.78 1.13 0.79 0.70 0.80 0.91 1.18 1.99 2.80 3.34 3.49 3.03 2.46 1.81 1.51 2.18 1.30 1.05 0.85 0.89 0.99 0.76 0.99 1.20 1.34 1.62 1.90 1.45 0.97 0.82 0.77 0.77 0.88 0.89 0.97
1.23 1.01 0.97 1.13 1.18 1.23 1.16 1.50 1.54 1.61 2.19 2.99 3.61 4.85 4.92 3.97 3.40 2.32 1.31 0.71 0.63 0.52 0.57 0.71 1.26 1.42 1.63 2.23 3.34 2.72 2.57 2.00 1.85 2.30 1.44 0.93 0.61 0.41 0.47 0.59 0.75 0.90 1.02 1.18 1.36 1.71 1.51 1.54 1.59 1.36 1.54 1.71 1.61 1.71
0.92 0.83 0.90 1.16 1.12 1.20 1.34 1.42 1.53 2.35 2.89 3.30 3.33 3.48 2.87 2.38 1.63 1.26 0.80 0.68 0.62 0.55 0.67 0.95 1.42 1.39 1.41 1.97 2.59 2.35 1.92 1.55 1.88 1.75 1.07 1.06 1.01 0.78 0.59 0.61 0.68 0.88 0.92 1.08 1.48 1.51 1.50 1.48 1.90 2.03 1.97 2.00 1.63 1.73
0.77 0.91 1.19 1.39 1.32 1.38 1.62 1.38 1.72 1.82 1.93 2.23 2.28 2.07 1.37 1.60 1.19 0.96 0.86 0.79 0.88 1.03 1.35 1.86 2.07 1.72 1.63 1.94 1.63 1.60 1.55 1.29 0.96 1.00 1.45 1.43 1.02 0.75 0.76 0.74 0.77 0.87 0.93 1.06 1.12 1.12 1.22 1.05 0.91 1.38 1.53 1.34 0.99 1.07
1.24 1.38 1.31 1.19 1.15 1.47 1.54 1.44 1.71 1.69 1.59 1.22 1.23 1.21 1.04 1.24 1.20 1.05 1.11 1.12 1.04 1.55 1.76 2.26 2.21 2.07 1.88 1.35 1.27 0.95 0.77 0.83 1.18 1.11 1.02 0.75 0.72 0.82 0.90 0.95 1.05 1.08 0.92 0.93 0.87 0.73 0.74 0.65 0.51 0.72 0.79 0.69 0.68 0.53
1.37 1.20 1.16 1.07 1.18 1.29 1.31 1.52 1.70 1.59 1.12 0.83 0.91 1.00 1.06 1.21 1.22 1.17 1.14 1.02 0.99 1.43 1.44 1.39 1.33 1.38 1.38 1.08 0.95 0.93 1.18 1.30 1.27 1.01 0.69 0.57 0.67 0.86 0.95 0.99 1.07 1.02 0.79 0.67 0.61 0.58 0.63 0.59 0.46 0.36 0.46 0.64 0.49 0.47
1.54 1.09 1.06 1.03 1.28 1.72 1.84 1.57 1.27 0.89 0.68 0.72 0.87 1.13 0.95 1.23 1.23 1.08 1.07 1.03 1.36 1.37 1.09 1.22 0.77 0.68 0.73 0.78 0.97 1.31 1.22 1.06 0.81 0.80 0.92 0.96 0.89 0.95 0.94 0.95 1.00 0.84 0.71 0.74 0.67 0.67 0.66 0.62 0.51 0.58 0.54 0.55 0.42 0.43
1.15 1.03 1.06 1.12 1.32 1.34 1.48 1.14 0.68 0.79 0.79 0.74 0.83 0.76 0.69 0.84 0.90 1.02 0.97 0.93 1.23 1.26 1.21 1.01 0.87 0.74 0.89 1.06 1.14 1.10 1.07 0.84 0.86 0.99 1.07 1.13 1.04 0.97 1.02 0.98 0.93 0.89 0.78 0.83 0.72 0.66 0.67 0.63 0.58 0.54 0.50 0.45 0.44 0.44
1.40 1.27 1.00 0.99 0.99 0.97 0.83 0.72 0.30 0.26 0.51 0.60 0.65 0.46 0.40 0.59 0.46 0.36 0.42 0.59 0.90 1.48 1.55 1.15 1.14 1.34 1.34 1.34 1.20 1.11 1.15 0.91 0.71 0.68 0.96 1.15 1.17 0.91 0.96 0.82 0.80 0.78 0.67 0.68 0.65 0.59 0.51 0.46 0.48 0.44 0.39 0.36 0.37 0.38
1.20 1.27 0.92 0.96 0.86 0.79 0.66 0.75 0.61 0.20 0.23 0.40 0.38 0.23 0.32 0.17 0.12 0.13 0.14 0.24 0.91 1.42 1.50 1.48 1.40 1.47 1.48 1.41 1.12 0.90 0.90 0.76 0.78 0.63 0.76 0.97 1.05 0.73 0.78 0.84 0.72 0.63 0.57 0.61 0.57 0.57 0.46 0.46 0.42 0.36 0.42 0.44 0.40 0.42
0.75 0.83 0.91 0.71 0.74 0.52 0.38 0.13 0.44 0.47 0.25 0.21 0.22 0.22 0.34 0.31 0.23 0.19 0.19 0.45 0.88 1.00 1.09 1.14 1.12 1.03 0.93 1.03 1.11 0.94 0.96 0.67 0.59 0.55 0.61 0.61 0.71 0.74 0.80 0.85 0.66 0.66 0.62 0.61 0.49 0.45 0.39 0.33 0.31 0.30 0.34 0.41 0.39 0.45
0.94 1.00 0.98 0.80 0.73 0.50 0.29 0.09 0.13 0.29 0.47 0.33 0.20 0.21 0.24 0.36 0.35 0.25 0.34 0.34 0.69 0.93 0.80 0.66 0.73 0.71 0.73 0.93 0.67 0.67 0.78 0.61 0.60 0.64 0.67 0.63 0.62 0.65 0.60 0.63 0.57 0.51 0.47 0.47 0.43 0.43 0.42 0.35 0.32 0.34 0.34 0.37 0.46 0.45
0.81 1.04 0.90 0.71 0.51 0.42 0.22 0.21 0.13 0.14 0.21 0.36 0.47 0.32 0.21 0.19 0.11 0.15 0.30 0.45 0.72 0.53 0.42 0.56 0.47 0.47 0.46 0.45 0.51 0.62 0.76 0.53 0.49 0.52 0.57 0.39 0.34 0.41 0.34 0.36 0.37 0.41 0.46 0.42 0.35 0.39 0.38 0.44 0.44 0.41 0.40 0.42 0.46 0.45
0.84 0.56 0.50 0.46 0.31 0.23 0.16 0.16 0.13 0.10 0.11 0.11 0.31 0.43 0.45 0.28 0.25 0.21 0.26 0.57 0.47 0.44 0.45 0.39 0.30 0.32 0.43 0.54 0.59 0.55 0.43 0.31 0.30 0.33 0.41 0.30 0.31 0.34 0.29 0.29 0.31 0.34 0.33 0.32 0.33 0.38 0.44 0.44 0.44 0.40 0.39 0.41 0.42 0.42
0.63 0.25 0.20 0.20 0.19 0.14 0.10 0.11 0.14 0.15 0.10 0.12 0.23 0.26 0.30 0.37 0.31 0.36 0.41 0.59 0.50 0.48 0.51 0.49 0.41 0.27 0.28 0.29 0.31 0.30 0.26 0.21 0.18 0.24 0.28 0.22 0.24 0.31 0.29 0.27 0.33 0.38 0.25 0.36 0.43 0.45 0.38 0.33 0.35 0.34 0.36 0.39 0.43 0.43
0.41 0.20 0.08 0.09 0.23 0.32 0.27 0.17 0.18 0.20 0.22 0.26 0.26 0.21 0.39 0.48 0.45 0.46 0.49 0.43 0.40 0.43 0.34 0.30 0.24 0.20 0.22 0.22 0.17 0.16 0.14 0.10 0.14 0.22 0.26 0.21 0.20 0.24 0.31 0.42 0.43 0.47 0.30 0.33 0.40 0.42 0.42 0.40 0.41 0.39 0.41 0.45 0.44 0.46
0.21 0.14 0.17 0.18 0.26 0.32 0.42 0.36 0.34 0.32 0.37 0.30 0.31 0.30 0.39 0.39 0.50 0.51 0.48 0.46 0.35 0.26 0.18 0.16 0.16 0.16 0.18 0.22 0.22 0.18 0.19 0.16 0.16 0.22 0.23 0.26 0.23 0.26 0.28 0.29 0.28 0.23 0.22 0.29 0.30 0.31 0.34 0.40 0.45 0.44 0.45 0.43 0.45 0.42
0.20 0.15 0.17 0.18 0.19 0.17 0.26 0.34 0.44 0.40 0.35 0.33 0.37 0.33 0.28 0.37 0.62 0.57 0.52 0.37 0.30 0.24 0.23 0.21 0.30 0.21 0.21 0.27 0.22 0.15 0.19 0.23 0.30 0.36 0.41 0.54 0.46 0.43 0.26 0.21 0.21 0.20 0.21 0.24 0.24 0.28 0.30 0.35 0.36 0.37 0.46 0.48 0.47 0.52
0.12 0.10 0.16 0.15 0.14 0.21 0.34 0.25 0.31 0.25 0.16 0.17 0.21 0.22 0.23 0.48 0.70 0.54 0.47 0.37 0.36 0.39 0.41 0.34 0.33 0.26 0.26 0.23 0.31 0.29 0.35 0.30 0.30 0.39 0.45 0.45 0.41 0.37 0.24 0.20 0.19 0.20 0.19 0.19 0.21 0.26 0.27 0.26 0.28 0.30 0.31 0.38 0.46 0.53
0.16 0.18 0.20 0.18 0.23 0.34 0.33 0.20 0.22 0.19 0.22 0.20 0.20 0.20 0.32 0.49 0.54 0.38 0.35 0.48 0.35 0.31 0.30 0.29 0.29 0.30 0.31 0.33 0.37 0.41 0.54 0.43 0.32 0.34 0.37 0.39 0.34 0.26 0.22 0.19 0.19 0.18 0.17 0.16 0.19 0.24 0.27 0.28 0.32 0.35 0.32 0.34 0.36 0.35
0.25 0.33 0.34 0.30 0.44 0.37 0.33 0.41 0.35 0.37 0.34 0.33 0.34 0.24 0.36 0.33 0.33 0.43 0.36 0.38 0.43 0.39 0.39 0.36 0.38 0.43 0.44 0.51 0.50 0.50 0.49 0.44 0.29 0.27 0.27 0.26 0.24 0.21 0.17 0.14 0.16 0.19 0.20 0.18 0.20 0.22 0.22 0.26 0.32 0.32 0.34 0.31 0.30 0.28
0.31 0.31 0.37 0.45 0.45 0.45 0.42 0.46 0.41 0.40 0.40 0.39 0.43 0.46 0.47 0.41 0.43 0.56 0.42 0.45 0.67 0.66 0.53 0.52 0.54 0.52 0.51 0.44 0.37 0.39 0.37 0.37 0.35 0.28 0.24 0.22 0.16 0.14 0.12 0.14 0.15 0.17 0.18 0.20 0.24 0.23 0.22 0.20 0.21 0.21 0.19 0.18 0.19 0.16